Year,Month,Day,Hour,Minute,Value (Times are PST for windspeed in km/hr)
2006,02,05,00,00,21.70
2006,02,05,00,01,12.70
2006,02,05,00,02,18.10
2006,02,05,00,03,11.70
2006,02,05,00,04,8.10
2006,02,05,00,05,18.50
2006,02,05,00,06,20.50
2006,02,05,00,07,14.10
2006,02,05,00,08,13.90
2006,02,05,00,09,17.40
2006,02,05,00,10,17.50
2006,02,05,00,11,19.50
2006,02,05,00,12,19.50
2006,02,05,00,13,12.10
2006,02,05,00,14,9.50
2006,02,05,00,15,20.60
2006,02,05,00,16,18.20
2006,02,05,00,17,20.90
2006,02,05,00,18,15.10
2006,02,05,00,19,21.50
2006,02,05,00,20,19.40
2006,02,05,00,21,8.40
2006,02,05,00,22,10.40
2006,02,05,00,23,14.50
2006,02,05,00,24,13.90
2006,02,05,00,25,16.70
2006,02,05,00,26,13.40
2006,02,05,00,27,9.40
2006,02,05,00,28,9.00
2006,02,05,00,29,13.60
2006,02,05,00,30,14.20
2006,02,05,00,31,10.80
2006,02,05,00,32,15.00
2006,02,05,00,33,14.90
2006,02,05,00,34,16.50
2006,02,05,00,35,11.40
2006,02,05,00,36,11.80
2006,02,05,00,37,10.30
2006,02,05,00,38,14.70
2006,02,05,00,39,15.80
2006,02,05,00,40,18.70
2006,02,05,00,41,16.50
2006,02,05,00,42,13.40
2006,02,05,00,43,18.00
2006,02,05,00,44,16.10
2006,02,05,00,45,14.80
2006,02,05,00,46,10.00
2006,02,05,00,47,19.20
2006,02,05,00,48,19.30
2006,02,05,00,49,15.40
2006,02,05,00,50,19.80
2006,02,05,00,51,15.70
2006,02,05,00,52,18.30
2006,02,05,00,53,20.60
2006,02,05,00,54,12.90
2006,02,05,00,55,21.30
2006,02,05,00,56,22.00
2006,02,05,00,57,26.40
2006,02,05,00,58,15.50
2006,02,05,00,59,16.80
2006,02,05,01,00,23.70
2006,02,05,01,01,10.90
2006,02,05,01,02,25.30
2006,02,05,01,03,24.40
2006,02,05,01,04,15.30
2006,02,05,01,05,16.20
2006,02,05,01,06,23.00
2006,02,05,01,07,19.70
2006,02,05,01,08,18.20
2006,02,05,01,09,6.20
2006,02,05,01,10,10.90
2006,02,05,01,11,16.30
2006,02,05,01,12,6.70
2006,02,05,01,13,13.30
2006,02,05,01,14,16.20
2006,02,05,01,15,20.60
2006,02,05,01,16,11.50
2006,02,05,01,17,15.40
2006,02,05,01,18,17.00
2006,02,05,01,19,13.50
2006,02,05,01,20,23.00
2006,02,05,01,21,19.50
2006,02,05,01,22,15.30
2006,02,05,01,23,17.70
2006,02,05,01,24,22.40
2006,02,05,01,25,19.30
2006,02,05,01,26,17.50
2006,02,05,01,27,13.40
2006,02,05,01,28,17.90
2006,02,05,01,29,16.50
2006,02,05,01,30,10.00
2006,02,05,01,31,10.30
2006,02,05,01,32,15.00
2006,02,05,01,33,17.80
2006,02,05,01,34,12.70
2006,02,05,01,35,12.20
2006,02,05,01,36,17.70
2006,02,05,01,37,18.50
2006,02,05,01,38,15.80
2006,02,05,01,39,9.60
2006,02,05,01,40,14.20
2006,02,05,01,41,17.10
2006,02,05,01,42,18.00
2006,02,05,01,43,13.50
2006,02,05,01,44,9.30
2006,02,05,01,45,10.40
2006,02,05,01,46,10.00
2006,02,05,01,47,16.20
2006,02,05,01,48,14.70
2006,02,05,01,49,15.50
2006,02,05,01,50,8.80
2006,02,05,01,51,8.00
2006,02,05,01,52,17.50
2006,02,05,01,53,11.30
2006,02,05,01,54,11.30
2006,02,05,01,55,11.30
2006,02,05,01,56,11.30
2006,02,05,01,57,12.00
2006,02,05,01,58,9.20
2006,02,05,01,59,8.60
2006,02,05,02,00,9.40
2006,02,05,02,01,5.50
2006,02,05,02,02,3.20
2006,02,05,02,03,6.40
2006,02,05,02,04,9.30
2006,02,05,02,05,10.50
2006,02,05,02,06,13.90
2006,02,05,02,07,15.00
2006,02,05,02,08,17.70
2006,02,05,02,09,16.60
2006,02,05,02,10,8.70
2006,02,05,02,11,11.90
2006,02,05,02,12,20.60
2006,02,05,02,13,20.80
2006,02,05,02,14,18.40
2006,02,05,02,15,14.30
2006,02,05,02,16,14.80
2006,02,05,02,17,17.20
2006,02,05,02,18,23.00
2006,02,05,02,19,17.70
2006,02,05,02,20,7.30
2006,02,05,02,21,6.90
2006,02,05,02,22,7.90
2006,02,05,02,23,7.80
2006,02,05,02,24,8.10
2006,02,05,02,25,11.50
2006,02,05,02,26,10.90
2006,02,05,02,27,16.50
2006,02,05,02,28,18.80
2006,02,05,02,29,17.40
2006,02,05,02,30,19.70
2006,02,05,02,31,11.40
2006,02,05,02,32,16.90
2006,02,05,02,33,14.80
2006,02,05,02,34,16.80
2006,02,05,02,35,16.20
2006,02,05,02,36,12.50
2006,02,05,02,37,5.30
2006,02,05,02,38,17.60
2006,02,05,02,39,9.40
2006,02,05,02,40,11.90
2006,02,05,02,41,7.00
2006,02,05,02,42,3.50
2006,02,05,02,43,8.00
2006,02,05,02,44,4.60
2006,02,05,02,45,8.50
2006,02,05,02,46,8.70
2006,02,05,02,47,13.20
2006,02,05,02,48,8.90
2006,02,05,02,49,7.70
2006,02,05,02,50,10.80
2006,02,05,02,51,10.30
2006,02,05,02,52,9.40
2006,02,05,02,53,6.40
2006,02,05,02,54,6.50
2006,02,05,02,55,6.70
2006,02,05,02,56,9.20
2006,02,05,02,57,6.40
2006,02,05,02,58,4.70
2006,02,05,02,59,7.60
2006,02,05,03,00,4.90
2006,02,05,03,01,5.90
2006,02,05,03,02,3.40
2006,02,05,03,03,2.70
2006,02,05,03,04,3.70
2006,02,05,03,05,4.30
2006,02,05,03,06,3.40
2006,02,05,03,07,6.50
2006,02,05,03,08,3.40
2006,02,05,03,09,4.20
2006,02,05,03,10,5.00
2006,02,05,03,11,4.70
2006,02,05,03,12,6.00
2006,02,05,03,13,10.20
2006,02,05,03,14,4.20
2006,02,05,03,15,5.00
2006,02,05,03,16,9.70
2006,02,05,03,17,9.10
2006,02,05,03,18,8.10
2006,02,05,03,19,5.20
2006,02,05,03,20,3.80
2006,02,05,03,21,0.30
2006,02,05,03,22,1.30
2006,02,05,03,23,9.00
2006,02,05,03,24,7.00
2006,02,05,03,25,5.60
2006,02,05,03,26,4.10
2006,02,05,03,27,5.80
2006,02,05,03,28,5.30
2006,02,05,03,29,7.40
2006,02,05,03,30,2.90
2006,02,05,03,31,5.00
2006,02,05,03,32,3.90
2006,02,05,03,33,7.20
2006,02,05,03,34,5.30
2006,02,05,03,35,2.20
2006,02,05,03,36,5.40
2006,02,05,03,37,4.30
2006,02,05,03,38,4.60
2006,02,05,03,39,7.80
2006,02,05,03,40,7.40
2006,02,05,03,41,7.60
2006,02,05,03,42,4.70
2006,02,05,03,43,6.60
2006,02,05,03,44,5.90
2006,02,05,03,45,5.60
2006,02,05,03,46,4.10
2006,02,05,03,47,5.10
2006,02,05,03,48,7.50
2006,02,05,03,49,9.20
2006,02,05,03,50,13.40
2006,02,05,03,51,9.10
2006,02,05,03,52,10.50
2006,02,05,03,53,8.10
2006,02,05,03,54,8.70
2006,02,05,03,55,18.10
2006,02,05,03,56,9.70
2006,02,05,03,57,10.40
2006,02,05,03,58,10.60
2006,02,05,03,59,12.40
2006,02,05,04,00,10.30
2006,02,05,04,01,14.70
2006,02,05,04,02,14.30
2006,02,05,04,03,17.50
2006,02,05,04,04,14.00
2006,02,05,04,05,13.30
2006,02,05,04,06,17.00
2006,02,05,04,07,20.10
2006,02,05,04,08,14.60
2006,02,05,04,09,14.00
2006,02,05,04,10,17.20
2006,02,05,04,11,13.80
2006,02,05,04,12,15.40
2006,02,05,04,13,15.80
2006,02,05,04,14,13.70
2006,02,05,04,15,13.50
2006,02,05,04,16,11.10
2006,02,05,04,17,12.30
2006,02,05,04,18,13.60
2006,02,05,04,19,7.30
2006,02,05,04,20,11.10
2006,02,05,04,21,13.60
2006,02,05,04,22,12.30
2006,02,05,04,23,10.10
2006,02,05,04,24,13.40
2006,02,05,04,25,5.00
2006,02,05,04,26,8.90
2006,02,05,04,27,10.20
2006,02,05,04,28,8.70
2006,02,05,04,29,9.40
2006,02,05,04,30,8.00
2006,02,05,04,31,8.20
2006,02,05,04,32,8.10
2006,02,05,04,33,9.20
2006,02,05,04,34,10.50
2006,02,05,04,35,9.30
2006,02,05,04,36,12.30
2006,02,05,04,37,10.80
2006,02,05,04,38,14.60
2006,02,05,04,39,8.90
2006,02,05,04,40,7.10
2006,02,05,04,41,9.90
2006,02,05,04,42,13.50
2006,02,05,04,43,9.70
2006,02,05,04,44,13.80
2006,02,05,04,45,13.70
2006,02,05,04,46,12.50
2006,02,05,04,47,9.70
2006,02,05,04,48,7.00
2006,02,05,04,49,3.20
2006,02,05,04,50,8.80
2006,02,05,04,51,8.00
2006,02,05,04,52,6.50
2006,02,05,04,53,4.30
2006,02,05,04,54,6.70
2006,02,05,04,55,4.40
2006,02,05,04,56,3.90
2006,02,05,04,57,4.10
2006,02,05,04,58,1.80
2006,02,05,04,59,4.30
2006,02,05,05,00,5.70
2006,02,05,05,01,9.90
2006,02,05,05,02,10.00
2006,02,05,05,03,4.60
2006,02,05,05,04,8.90
2006,02,05,05,05,9.10
2006,02,05,05,06,6.20
2006,02,05,05,07,6.70
2006,02,05,05,08,12.90
2006,02,05,05,09,11.10
2006,02,05,05,10,12.90
2006,02,05,05,11,8.20
2006,02,05,05,12,7.10
2006,02,05,05,13,8.40
2006,02,05,05,14,7.30
2006,02,05,05,15,8.60
2006,02,05,05,16,3.50
2006,02,05,05,17,5.00
2006,02,05,05,18,4.10
2006,02,05,05,19,12.90
2006,02,05,05,20,9.30
2006,02,05,05,21,8.70
2006,02,05,05,22,11.20
2006,02,05,05,23,10.00
2006,02,05,05,24,3.40
2006,02,05,05,25,3.20
2006,02,05,05,26,7.10
2006,02,05,05,27,5.00
2006,02,05,05,28,2.30
2006,02,05,05,29,7.70
2006,02,05,05,30,8.00
2006,02,05,05,31,13.90
2006,02,05,05,32,7.70
2006,02,05,05,33,9.10
2006,02,05,05,34,15.70
2006,02,05,05,35,10.10
2006,02,05,05,36,16.90
2006,02,05,05,37,13.50
2006,02,05,05,38,7.40
2006,02,05,05,39,7.80
2006,02,05,05,40,10.30
2006,02,05,05,41,12.70
2006,02,05,05,42,8.70
2006,02,05,05,43,9.70
2006,02,05,05,44,9.90
2006,02,05,05,45,7.50
2006,02,05,05,46,6.90
2006,02,05,05,47,6.10
2006,02,05,05,48,14.10
2006,02,05,05,49,9.60
2006,02,05,05,50,10.00
2006,02,05,05,51,11.80
2006,02,05,05,52,9.10
2006,02,05,05,53,7.40
2006,02,05,05,54,9.80
2006,02,05,05,55,6.80
2006,02,05,05,56,13.50
2006,02,05,05,57,11.40
2006,02,05,05,58,7.90
2006,02,05,05,59,6.70
2006,02,05,06,00,9.00
2006,02,05,06,01,8.50
2006,02,05,06,02,7.10
2006,02,05,06,03,7.50
2006,02,05,06,04,10.40
2006,02,05,06,05,8.00
2006,02,05,06,06,8.30
2006,02,05,06,07,10.60
2006,02,05,06,08,6.60
2006,02,05,06,09,7.20
2006,02,05,06,10,14.80
2006,02,05,06,11,9.80
2006,02,05,06,12,9.10
2006,02,05,06,13,9.70
2006,02,05,06,14,18.90
2006,02,05,06,15,13.90
2006,02,05,06,16,13.90
2006,02,05,06,17,11.70
2006,02,05,06,18,13.10
2006,02,05,06,19,9.50
2006,02,05,06,20,10.00
2006,02,05,06,21,7.30
2006,02,05,06,22,8.10
2006,02,05,06,23,5.80
2006,02,05,06,24,5.30
2006,02,05,06,25,7.50
2006,02,05,06,26,6.70
2006,02,05,06,27,5.20
2006,02,05,06,28,7.60
2006,02,05,06,29,5.00
2006,02,05,06,30,7.90
2006,02,05,06,31,7.00
2006,02,05,06,32,6.40
2006,02,05,06,33,8.90
2006,02,05,06,34,6.00
2006,02,05,06,35,8.40
2006,02,05,06,36,6.40
2006,02,05,06,37,9.50
2006,02,05,06,38,5.30
2006,02,05,06,39,5.30
2006,02,05,06,40,4.80
2006,02,05,06,41,8.30
2006,02,05,06,42,3.80
2006,02,05,06,43,7.20
2006,02,05,06,44,8.20
2006,02,05,06,45,4.60
2006,02,05,06,46,6.40
2006,02,05,06,47,9.10
2006,02,05,06,48,11.60
2006,02,05,06,49,7.60
2006,02,05,06,50,6.20
2006,02,05,06,51,6.70
2006,02,05,06,52,4.60
2006,02,05,06,53,4.30
2006,02,05,06,54,6.00
2006,02,05,06,55,8.30
2006,02,05,06,56,3.50
2006,02,05,06,57,3.70
2006,02,05,06,58,2.30
2006,02,05,06,59,6.70
2006,02,05,07,00,6.40
2006,02,05,07,01,6.60
2006,02,05,07,02,5.70
2006,02,05,07,03,9.40
2006,02,05,07,04,6.50
2006,02,05,07,05,8.50
2006,02,05,07,06,10.30
2006,02,05,07,07,8.70
2006,02,05,07,08,5.40
2006,02,05,07,09,10.60
2006,02,05,07,10,6.40
2006,02,05,07,11,7.40
2006,02,05,07,12,7.40
2006,02,05,07,13,4.50
2006,02,05,07,14,8.60
2006,02,05,07,15,10.10
2006,02,05,07,16,2.50
2006,02,05,07,17,4.90
2006,02,05,07,18,9.80
2006,02,05,07,19,9.80
2006,02,05,07,20,4.60
2006,02,05,07,21,5.90
2006,02,05,07,22,4.90
2006,02,05,07,23,10.10
2006,02,05,07,24,4.50
2006,02,05,07,25,7.70
2006,02,05,07,26,5.30
2006,02,05,07,27,4.80
2006,02,05,07,28,8.50
2006,02,05,07,29,7.80
2006,02,05,07,30,5.10
2006,02,05,07,31,5.40
2006,02,05,07,32,5.40
2006,02,05,07,33,9.00
2006,02,05,07,34,6.60
2006,02,05,07,35,5.90
2006,02,05,07,36,6.50
2006,02,05,07,37,6.80
2006,02,05,07,38,4.20
2006,02,05,07,39,0.00
2006,02,05,07,40,4.40
2006,02,05,07,41,8.00
2006,02,05,07,42,11.80
2006,02,05,07,43,5.90
2006,02,05,07,44,7.80
2006,02,05,07,45,8.30
2006,02,05,07,46,6.90
2006,02,05,07,47,6.00
2006,02,05,07,48,7.80
2006,02,05,07,49,6.20
2006,02,05,07,50,5.00
2006,02,05,07,51,6.20
2006,02,05,07,52,8.50
2006,02,05,07,53,4.90
2006,02,05,07,54,6.30
2006,02,05,07,55,5.60
2006,02,05,07,56,5.00
2006,02,05,07,57,8.10
2006,02,05,07,58,13.80
2006,02,05,07,59,4.80
2006,02,05,08,00,13.00
2006,02,05,08,01,8.10
2006,02,05,08,02,6.00
2006,02,05,08,03,8.10
2006,02,05,08,04,7.60
2006,02,05,08,05,5.90
2006,02,05,08,06,6.60
2006,02,05,08,07,6.60
2006,02,05,08,08,6.60
2006,02,05,08,09,6.10
2006,02,05,08,10,5.00
2006,02,05,08,11,3.90
2006,02,05,08,12,4.90
2006,02,05,08,13,5.20
2006,02,05,08,14,2.10
2006,02,05,08,15,1.60
2006,02,05,08,16,1.60
2006,02,05,08,17,3.60
2006,02,05,08,18,4.80
2006,02,05,08,19,5.30
2006,02,05,08,20,4.30
2006,02,05,08,21,3.80
2006,02,05,08,22,4.90
2006,02,05,08,23,2.30
2006,02,05,08,24,3.70
2006,02,05,08,25,4.40
2006,02,05,08,26,2.40
2006,02,05,08,27,1.60
2006,02,05,08,28,1.90
2006,02,05,08,29,4.00
2006,02,05,08,30,3.60
2006,02,05,08,31,4.90
2006,02,05,08,32,6.50
2006,02,05,08,33,4.60
2006,02,05,08,34,3.10
2006,02,05,08,35,3.70
2006,02,05,08,36,4.50
2006,02,05,08,37,3.50
2006,02,05,08,38,3.70
2006,02,05,08,39,5.40
2006,02,05,08,40,5.70
2006,02,05,08,41,3.40
2006,02,05,08,42,5.60
2006,02,05,08,43,5.00
2006,02,05,08,44,5.10
2006,02,05,08,45,7.00
2006,02,05,08,46,5.20
2006,02,05,08,47,4.70
2006,02,05,08,48,4.40
2006,02,05,08,49,3.90
2006,02,05,08,50,3.50
2006,02,05,08,51,4.20
2006,02,05,08,52,3.70
2006,02,05,08,53,3.40
2006,02,05,08,54,2.60
2006,02,05,08,55,2.20
2006,02,05,08,56,1.00
2006,02,05,08,57,2.20
2006,02,05,08,58,2.70
2006,02,05,08,59,2.70
2006,02,05,09,00,3.00
2006,02,05,09,01,3.80
2006,02,05,09,02,6.40
2006,02,05,09,03,5.00
2006,02,05,09,04,3.30
2006,02,05,09,05,5.50
2006,02,05,09,06,3.20
2006,02,05,09,07,3.00
2006,02,05,09,08,1.10
2006,02,05,09,09,2.70
2006,02,05,09,10,2.40
2006,02,05,09,11,2.20
2006,02,05,09,12,1.40
2006,02,05,09,13,3.90
2006,02,05,09,14,5.10
2006,02,05,09,15,7.20
2006,02,05,09,16,6.80
2006,02,05,09,17,5.20
2006,02,05,09,18,4.60
2006,02,05,09,19,5.90
2006,02,05,09,20,4.10
2006,02,05,09,21,4.30
2006,02,05,09,22,4.80
2006,02,05,09,23,4.30
2006,02,05,09,24,4.00
2006,02,05,09,25,6.00
2006,02,05,09,26,7.30
2006,02,05,09,27,5.50
2006,02,05,09,28,2.90
2006,02,05,09,29,4.30
2006,02,05,09,30,1.60
2006,02,05,09,31,2.90
2006,02,05,09,32,3.00
2006,02,05,09,33,5.20
2006,02,05,09,34,2.60
2006,02,05,09,35,0.00
2006,02,05,09,36,1.50
2006,02,05,09,37,1.80
2006,02,05,09,38,0.80
2006,02,05,09,39,0.00
2006,02,05,09,40,0.10
2006,02,05,09,41,1.80
2006,02,05,09,42,1.60
2006,02,05,09,43,1.70
2006,02,05,09,44,1.50
2006,02,05,09,45,2.70
2006,02,05,09,46,2.70
2006,02,05,09,47,1.90
2006,02,05,09,48,2.00
2006,02,05,09,49,2.80
2006,02,05,09,50,2.30
2006,02,05,09,51,2.00
2006,02,05,09,52,0.40
2006,02,05,09,53,0.70
2006,02,05,09,54,0.60
2006,02,05,09,55,1.60
2006,02,05,09,56,0.10
2006,02,05,09,57,1.50
2006,02,05,09,58,1.30
2006,02,05,09,59,0.60
2006,02,05,10,00,0.20
2006,02,05,10,01,0.00
2006,02,05,10,02,0.00
2006,02,05,10,03,0.10
2006,02,05,10,04,0.30
2006,02,05,10,05,0.00
2006,02,05,10,06,0.00
2006,02,05,10,07,1.30
2006,02,05,10,08,1.50
2006,02,05,10,09,0.90
2006,02,05,10,10,1.50
2006,02,05,10,11,1.80
2006,02,05,10,12,4.30
2006,02,05,10,13,4.50
2006,02,05,10,14,3.90
2006,02,05,10,15,2.50
2006,02,05,10,16,3.70
2006,02,05,10,17,2.10
2006,02,05,10,18,0.20
2006,02,05,10,19,1.60
2006,02,05,10,20,3.20
2006,02,05,10,21,4.10
2006,02,05,10,22,3.70
2006,02,05,10,23,3.10
2006,02,05,10,24,2.60
2006,02,05,10,25,3.70
2006,02,05,10,26,4.20
2006,02,05,10,27,2.80
2006,02,05,10,28,2.60
2006,02,05,10,29,5.00
2006,02,05,10,30,4.50
2006,02,05,10,31,2.20
2006,02,05,10,32,4.50
2006,02,05,10,33,4.90
2006,02,05,10,34,6.10
2006,02,05,10,35,3.60
2006,02,05,10,36,4.00
2006,02,05,10,37,3.00
2006,02,05,10,38,5.00
2006,02,05,10,39,2.10
2006,02,05,10,40,1.70
2006,02,05,10,41,2.30
2006,02,05,10,42,1.30
2006,02,05,10,43,2.40
2006,02,05,10,44,2.70
2006,02,05,10,45,2.70
2006,02,05,10,46,4.30
2006,02,05,10,47,5.90
2006,02,05,10,48,4.50
2006,02,05,10,49,3.70
2006,02,05,10,50,7.70
2006,02,05,10,51,5.30
2006,02,05,10,52,4.50
2006,02,05,10,53,4.30
2006,02,05,10,54,2.90
2006,02,05,10,55,2.90
2006,02,05,10,56,2.20
2006,02,05,10,57,4.30
2006,02,05,10,58,0.40
2006,02,05,10,59,0.30
2006,02,05,11,00,1.10
2006,02,05,11,01,1.50
2006,02,05,11,02,1.70
2006,02,05,11,03,0.30
2006,02,05,11,04,0.60
2006,02,05,11,05,0.30
2006,02,05,11,06,2.20
2006,02,05,11,07,1.40
2006,02,05,11,08,0.60
2006,02,05,11,09,1.60
2006,02,05,11,10,2.30
2006,02,05,11,11,1.60
2006,02,05,11,12,0.40
2006,02,05,11,13,0.00
2006,02,05,11,14,1.70
2006,02,05,11,15,1.40
2006,02,05,11,16,0.00
2006,02,05,11,17,0.00
2006,02,05,11,18,0.00
2006,02,05,11,19,0.00
2006,02,05,11,20,0.00
2006,02,05,11,21,0.00
2006,02,05,11,22,0.00
2006,02,05,11,23,0.00
2006,02,05,11,24,0.00
2006,02,05,11,25,0.00
2006,02,05,11,26,0.00
2006,02,05,11,27,0.10
2006,02,05,11,28,0.00
2006,02,05,11,29,0.40
2006,02,05,11,30,0.00
2006,02,05,11,31,0.00
2006,02,05,11,32,0.00
2006,02,05,11,33,0.00
2006,02,05,11,34,0.00
2006,02,05,11,35,0.00
2006,02,05,11,36,0.00
2006,02,05,11,37,0.10
2006,02,05,11,38,0.40
2006,02,05,11,39,1.50
2006,02,05,11,40,2.00
2006,02,05,11,41,2.00
2006,02,05,11,42,0.70
2006,02,05,11,43,2.00
2006,02,05,11,44,2.50
2006,02,05,11,45,2.00
2006,02,05,11,46,0.90
2006,02,05,11,47,0.70
2006,02,05,11,48,1.10
2006,02,05,11,49,0.70
2006,02,05,11,50,2.20
2006,02,05,11,51,1.80
2006,02,05,11,52,0.30
2006,02,05,11,53,0.40
2006,02,05,11,54,0.30
2006,02,05,11,55,1.10
2006,02,05,11,56,1.30
2006,02,05,11,57,1.30
2006,02,05,11,58,0.00
2006,02,05,11,59,0.10
2006,02,05,12,00,0.20
2006,02,05,12,01,1.40
2006,02,05,12,02,1.50
2006,02,05,12,03,1.70
2006,02,05,12,04,0.20
2006,02,05,12,05,0.40
2006,02,05,12,06,0.00
2006,02,05,12,07,0.00
2006,02,05,12,08,0.10
2006,02,05,12,09,0.60
2006,02,05,12,10,0.00
2006,02,05,12,11,0.00
2006,02,05,12,12,0.10
2006,02,05,12,13,0.00
2006,02,05,12,14,0.00
2006,02,05,12,15,0.70
2006,02,05,12,16,1.80
2006,02,05,12,17,0.70
2006,02,05,12,18,0.40
2006,02,05,12,19,0.10
2006,02,05,12,20,1.20
2006,02,05,12,21,0.90
2006,02,05,12,22,0.20
2006,02,05,12,23,0.10
2006,02,05,12,24,0.90
2006,02,05,12,25,0.40
2006,02,05,12,26,2.50
2006,02,05,12,27,1.70
2006,02,05,12,28,3.10
2006,02,05,12,29,0.70
2006,02,05,12,30,0.00
2006,02,05,12,31,1.30
2006,02,05,12,32,0.00
2006,02,05,12,33,0.00
2006,02,05,12,34,0.20
2006,02,05,12,35,0.00
2006,02,05,12,36,0.50
2006,02,05,12,37,0.70
2006,02,05,12,38,0.00
2006,02,05,12,39,0.00
2006,02,05,12,40,0.00
2006,02,05,12,41,0.00
2006,02,05,12,42,0.70
2006,02,05,12,43,1.10
2006,02,05,12,44,0.00
2006,02,05,12,45,1.30
2006,02,05,12,46,4.80
2006,02,05,12,47,3.60
2006,02,05,12,48,2.20
2006,02,05,12,49,0.10
2006,02,05,12,50,0.60
2006,02,05,12,51,1.30
2006,02,05,12,52,2.90
2006,02,05,12,53,2.00
2006,02,05,12,54,1.20
2006,02,05,12,55,0.00
2006,02,05,12,56,0.00
2006,02,05,12,57,0.00
2006,02,05,12,58,0.10
2006,02,05,12,59,0.60
2006,02,05,13,00,0.40
2006,02,05,13,01,1.30
2006,02,05,13,02,3.70
2006,02,05,13,03,3.70
2006,02,05,13,04,1.10
2006,02,05,13,05,1.10
2006,02,05,13,06,0.40
2006,02,05,13,07,1.80
2006,02,05,13,08,3.10
2006,02,05,13,09,3.60
2006,02,05,13,10,1.90
2006,02,05,13,11,0.70
2006,02,05,13,12,2.40
2006,02,05,13,13,3.20
2006,02,05,13,14,4.50
2006,02,05,13,15,3.70
2006,02,05,13,16,3.20
2006,02,05,13,17,1.70
2006,02,05,13,18,1.20
2006,02,05,13,19,2.70
2006,02,05,13,20,5.10
2006,02,05,13,21,1.20
2006,02,05,13,22,2.90
2006,02,05,13,23,3.30
2006,02,05,13,24,3.20
2006,02,05,13,25,2.00
2006,02,05,13,26,0.50
2006,02,05,13,27,2.80
2006,02,05,13,28,2.90
2006,02,05,13,29,2.80
2006,02,05,13,30,2.50
2006,02,05,13,31,1.90
2006,02,05,13,32,2.10
2006,02,05,13,33,0.30
2006,02,05,13,34,1.50
2006,02,05,13,35,2.40
2006,02,05,13,36,1.10
2006,02,05,13,37,3.50
2006,02,05,13,38,2.60
2006,02,05,13,39,2.80
2006,02,05,13,40,2.00
2006,02,05,13,41,2.00
2006,02,05,13,42,2.40
2006,02,05,13,43,0.80
2006,02,05,13,44,1.50
2006,02,05,13,45,2.90
2006,02,05,13,46,1.90
2006,02,05,13,47,3.20
2006,02,05,13,48,3.40
2006,02,05,13,49,2.50
2006,02,05,13,50,0.70
2006,02,05,13,51,1.10
2006,02,05,13,52,3.50
2006,02,05,13,53,2.80
2006,02,05,13,54,1.10
2006,02,05,13,55,3.60
2006,02,05,13,56,2.40
2006,02,05,13,57,2.70
2006,02,05,13,58,0.80
2006,02,05,13,59,2.00
2006,02,05,14,00,1.60
2006,02,05,14,01,3.30
2006,02,05,14,02,4.90
2006,02,05,14,03,4.80
2006,02,05,14,04,5.20
2006,02,05,14,05,3.80
2006,02,05,14,06,1.20
2006,02,05,14,07,0.10
2006,02,05,14,08,1.30
2006,02,05,14,09,0.90
2006,02,05,14,10,1.10
2006,02,05,14,11,0.60
2006,02,05,14,12,1.70
2006,02,05,14,13,5.00
2006,02,05,14,14,2.60
2006,02,05,14,15,0.40
2006,02,05,14,16,0.60
2006,02,05,14,17,0.80
2006,02,05,14,18,2.80
2006,02,05,14,19,4.50
2006,02,05,14,20,6.40
2006,02,05,14,21,3.40
2006,02,05,14,22,0.90
2006,02,05,14,23,5.10
2006,02,05,14,24,2.10
2006,02,05,14,25,2.00
2006,02,05,14,26,2.70
2006,02,05,14,27,3.10
2006,02,05,14,28,4.80
2006,02,05,14,29,2.80
2006,02,05,14,30,5.10
2006,02,05,14,31,4.40
2006,02,05,14,32,4.10
2006,02,05,14,33,3.30
2006,02,05,14,34,2.50
2006,02,05,14,35,3.40
2006,02,05,14,36,6.70
2006,02,05,14,37,3.40
2006,02,05,14,38,2.90
2006,02,05,14,39,2.80
2006,02,05,14,40,2.20
2006,02,05,14,41,1.80
2006,02,05,14,42,1.60
2006,02,05,14,43,1.90
2006,02,05,14,44,1.50
2006,02,05,14,45,6.20
2006,02,05,14,46,6.70
2006,02,05,14,47,7.60
2006,02,05,14,48,5.20
2006,02,05,14,49,3.80
2006,02,05,14,50,4.50
2006,02,05,14,51,2.20
2006,02,05,14,52,2.40
2006,02,05,14,53,2.00
2006,02,05,14,54,4.80
2006,02,05,14,55,5.20
2006,02,05,14,56,3.20
2006,02,05,14,57,4.50
2006,02,05,14,58,2.00
2006,02,05,14,59,4.20
2006,02,05,15,00,2.20
2006,02,05,15,01,1.40
2006,02,05,15,02,0.00
2006,02,05,15,03,0.70
2006,02,05,15,04,1.40
2006,02,05,15,05,0.30
2006,02,05,15,06,0.00
2006,02,05,15,07,0.00
2006,02,05,15,08,0.00
2006,02,05,15,09,0.00
2006,02,05,15,10,0.20
2006,02,05,15,11,1.20
2006,02,05,15,12,0.60
2006,02,05,15,13,0.00
2006,02,05,15,14,0.00
2006,02,05,15,15,0.60
2006,02,05,15,16,0.00
2006,02,05,15,17,3.10
2006,02,05,15,18,2.20
2006,02,05,15,19,3.70
2006,02,05,15,20,3.70
2006,02,05,15,21,3.70
2006,02,05,15,22,2.40
2006,02,05,15,23,2.90
2006,02,05,15,24,2.90
2006,02,05,15,25,0.80
2006,02,05,15,26,2.00
2006,02,05,15,27,5.20
2006,02,05,15,28,3.40
2006,02,05,15,29,2.00
2006,02,05,15,30,2.20
2006,02,05,15,31,1.70
2006,02,05,15,32,0.80
2006,02,05,15,33,0.70
2006,02,05,15,34,0.60
2006,02,05,15,35,2.40
2006,02,05,15,36,4.40
2006,02,05,15,37,2.50
2006,02,05,15,38,2.20
2006,02,05,15,39,2.80
2006,02,05,15,40,1.10
2006,02,05,15,41,0.20
2006,02,05,15,42,0.20
2006,02,05,15,43,1.30
2006,02,05,15,44,2.00
2006,02,05,15,45,3.30
2006,02,05,15,46,2.70
2006,02,05,15,47,3.60
2006,02,05,15,48,2.00
2006,02,05,15,49,1.90
2006,02,05,15,50,2.40
2006,02,05,15,51,0.60
2006,02,05,15,52,2.00
2006,02,05,15,53,3.00
2006,02,05,15,54,1.90
2006,02,05,15,55,0.60
2006,02,05,15,56,1.60
2006,02,05,15,57,3.90
2006,02,05,15,58,1.60
2006,02,05,15,59,5.60
2006,02,05,16,00,8.50
2006,02,05,16,01,12.50
2006,02,05,16,02,12.00
2006,02,05,16,03,8.30
2006,02,05,16,04,11.40
2006,02,05,16,05,12.90
2006,02,05,16,06,12.30
2006,02,05,16,07,12.90
2006,02,05,16,08,9.70
2006,02,05,16,09,11.20
2006,02,05,16,10,6.00
2006,02,05,16,11,6.40
2006,02,05,16,12,9.90
2006,02,05,16,13,10.60
2006,02,05,16,14,8.90
2006,02,05,16,15,7.60
2006,02,05,16,16,11.30
2006,02,05,16,17,9.40
2006,02,05,16,18,10.70
2006,02,05,16,19,6.90
2006,02,05,16,20,3.40
2006,02,05,16,21,5.10
2006,02,05,16,22,7.50
2006,02,05,16,23,9.00
2006,02,05,16,24,5.70
2006,02,05,16,25,5.40
2006,02,05,16,26,6.30
2006,02,05,16,27,8.40
2006,02,05,16,28,3.80
2006,02,05,16,29,6.40
2006,02,05,16,30,6.90
2006,02,05,16,31,8.70
2006,02,05,16,32,9.80
2006,02,05,16,33,6.40
2006,02,05,16,34,4.60
2006,02,05,16,35,5.60
2006,02,05,16,36,6.80
2006,02,05,16,37,4.60
2006,02,05,16,38,11.80
2006,02,05,16,39,6.90
2006,02,05,16,40,5.70
2006,02,05,16,41,6.30
2006,02,05,16,42,8.30
2006,02,05,16,43,7.20
2006,02,05,16,44,6.70
2006,02,05,16,45,7.90
2006,02,05,16,46,4.40
2006,02,05,16,47,6.10
2006,02,05,16,48,6.70
2006,02,05,16,49,7.70
2006,02,05,16,50,5.20
2006,02,05,16,51,6.60
2006,02,05,16,52,4.60
2006,02,05,16,53,2.40
2006,02,05,16,54,3.70
2006,02,05,16,55,4.30
2006,02,05,16,56,3.90
2006,02,05,16,57,8.10
2006,02,05,16,58,10.60
2006,02,05,16,59,6.70
2006,02,05,17,00,5.20
2006,02,05,17,01,2.60
2006,02,05,17,02,3.10
2006,02,05,17,03,4.70
2006,02,05,17,04,4.90
2006,02,05,17,05,5.70
2006,02,05,17,06,5.10
2006,02,05,17,07,5.20
2006,02,05,17,08,4.20
2006,02,05,17,09,5.20
2006,02,05,17,10,4.10
2006,02,05,17,11,4.80
2006,02,05,17,12,3.60
2006,02,05,17,13,5.90
2006,02,05,17,14,6.20
2006,02,05,17,15,6.20
2006,02,05,17,16,8.30
2006,02,05,17,17,7.40
2006,02,05,17,18,5.10
2006,02,05,17,19,9.90
2006,02,05,17,20,8.40
2006,02,05,17,21,6.10
2006,02,05,17,22,5.40
2006,02,05,17,23,8.10
2006,02,05,17,24,8.40
2006,02,05,17,25,6.80
2006,02,05,17,26,5.50
2006,02,05,17,27,3.40
2006,02,05,17,28,2.60
2006,02,05,17,29,3.30
2006,02,05,17,30,3.60
2006,02,05,17,31,7.60
2006,02,05,17,32,4.80
2006,02,05,17,33,4.80
2006,02,05,17,34,3.40
2006,02,05,17,35,2.20
2006,02,05,17,36,4.30
2006,02,05,17,37,4.90
2006,02,05,17,38,3.90
2006,02,05,17,39,5.20
2006,02,05,17,40,3.20
2006,02,05,17,41,4.40
2006,02,05,17,42,5.80
2006,02,05,17,43,4.50
2006,02,05,17,44,7.20
2006,02,05,17,45,4.50
2006,02,05,17,46,2.80
2006,02,05,17,47,3.70
2006,02,05,17,48,2.20
2006,02,05,17,49,3.20
2006,02,05,17,50,3.50
2006,02,05,17,51,2.40
2006,02,05,17,52,4.20
2006,02,05,17,53,1.30
2006,02,05,17,54,1.50
2006,02,05,17,55,0.10
2006,02,05,17,56,2.00